Showing default

COSMOS 2584(GLONASS), 63130

Orbit data source: Space-Track

COSMOS 2584(GLONASS), 63130 is a Commonwealth of Independent States-origin payload satellite in MEO that was launched on Sun, 02 Mar 2025 UTC via a SOYUZ-2-1B launch vehicle from the Plesetsk Missile And Space Complex (PKMTR). Payload-class satellites include a variety of spacecraft equipped with specific instruments for various scientific and technological missions. These include communications satellites like Starlink; space stations such as the ISS; scientific satellites like the Hubble; Earth observation satellites from companies like Planet Labs, Umbra, and HawkEye 360; GPS; miniature CubeSats for education and research; and military/defense satellites.

Loading next visibility...
Identifier
63130, 2025-042A
Orbit
MEO
Country
Flag of CISCIS
Related business
Manufacturer
Resehetnev ISS
Mission
Awaiting activation Defense Navigation
Bus & Motor
EKSPRESS-1000, AOCS
Mass
974 kg wet, ~800 kg dry
Launch date (UTC)
2025-03-02 (7 months ago)
Launch vehicle
SOYUZ-2-1B
Launch site
Plesetsk Missile And Space Complex (PKMTR)
Object type
Payload
Rocket body
Debris
Shape & HBR
Box + 2 Pan, 2.5 m
Radar Cross Section
3.585 m², Large (>1 m²)

Expand to show TLE details & history
Last TLE update: 3 days ago

TLE from 3 days ago
0 COSMOS 2584(GLONASS)
1 63130U 25042A   25259.09386111  .00000041  00000-0  00000-0 0  9993
2 63130  64.9266  82.1306 0006471 203.0982 156.9257  2.13103479  4201
Epoch: 2025-09-16T02:15Z
TLE epoch observation values (Epoch: 2025-09-16T02:15:09.599Z)
Latitude
-0.00006°
Longitude
53.04765°
Altitude
19,145.493 km
Speed
3.951 km/s
True Right ascension
05h 28m 30s
True Declination
0° 00' 00"
Sunlit
Object was in daylight at epoch
Visualization orbit readout
Latitude
Unknown
Longitude
Unknown
Altitude
Unknown
Speed
Unknown
Apparent Right ascension
Unknown
Apparent Declination
Unknown
Sunlit
N/A
Visualization observer readout
Local Sidereal Time
07:20:18
Azimuth
Unknown
Elevation
Unknown
Doppler factor
Unknown
Orbital elements
Apogee altitude
19,145.893 km
Perigee altitude
19,112.881 km
Semi-major axis
25,507.524 km
Eccentricity
0.00065
Inclination
64.9266°
RAAN
82.1306°
Arg. of periapsis
203.0982°
True anomaly
156.95474°
Mean anomaly
156.9257°
Eccentric anomaly
156.94022°
Mean motion
0.53277 °/min
Orbital period
675.71 mins
BSTAR
0
Loading maneuver chart data...
Computing Atmospheric mass density...
Loading historical data...
Loading historical data...
Loading historical data...
Loading historical data...
Loading historical data...
Loading historical data...
Loading historical data...
Other satellites on launch #42 in the year 2025 (2025-03-02 UTC)

Documentation

Showing up to 5 results
|